[Date Prev][Date Next][Thread Prev][Thread Next] - [Date Index][Thread Index][Author Index]

2 Line ISS Keps 4-6



ISS
1 25544U 98067A   02096.18385628  .00051500  00000-0  63101-3 0  2682
2 25544  51.6363  54.7477 0003424   2.3579 126.3876 15.59829835192807


----
Via the sarex mailing list at AMSAT.ORG courtesy of AMSAT-NA.
To unsubscribe, send "unsubscribe sarex" to Majordomo@amsat.org



AMSAT Top AMSAT Home